Date_and_time,latitude,longitude,wind_speed,RelWindDirFrom,WindDirFrom,air_pressure,air_temperature,relative_humidity,Temp,platform_speed_wrt_ground,air_pressure_at_mean_sea_level,platform_orientation
2019-12-13 23:40,50.63045,-96.9807616666667,11.5,16.9,334,989.75,-15.2,79,0.60,0.0,1019.22,360.0
2019-12-13 23:50,50.630445,-96.9807616666667,11.6,15.1,337,989.77,-15.5,79,0.60,0.0,1019.26,360.0
2019-12-14 00:00,50.6304483333333,-96.9807716666667,12.2,16.6,336,989.81,-15.8,80,0.60,0.0,1019.33,270.0
2019-12-14 00:00,50.6304483333333,-96.9807716666667,10.8,10.8,339,989.86,-15.9,81,0.60,0.0,1019.39,90.0
2019-12-14 00:10,50.6304483333333,-96.98077,11.2,16.4,334,989.84,-15.9,81,0.60,0.0,1019.39,90.0
2019-12-14 00:20,50.6304483333333,-96.980765,10.6,14.3,330,989.85,-16.0,81,0.59,0.0,1019.41,90.0
2019-12-14 00:30,50.6304516666667,-96.9807666666667,13.0,20.2,334,989.83,-15.9,81,0.60,0.0,1019.39,90.0
2019-12-14 00:40,50.6304533333333,-96.980765,13.3,18.7,328,989.75,-15.9,81,0.61,0.0,1019.32,90.0
2019-12-14 00:50,50.630455,-96.980765,13.1,20.7,328,989.79,-16.1,81,0.63,0.0,1019.39,90.0
2019-12-14 01:00,50.6304516666667,-96.9807833333333,11.8,15.9,328,990.00,-16.4,82,0.63,0.0,1019.62,270.0
2019-12-14 01:10,50.6304483333333,-96.9807733333333,12.4,17.5,328,990.06,-16.4,82,0.63,0.0,1019.70,270.0
2019-12-14 01:20,50.63045,-96.9807683333333,13.0,19.2,335,990.08,-16.4,82,0.63,0.0,1019.74,270.0
2019-12-14 01:30,50.6304483333333,-96.9807716666667,12.0,17.9,329,990.26,-16.5,81,0.62,0.0,1019.95,270.0
2019-12-14 01:40,50.6304483333333,-96.9807683333333,11.3,17.3,330,990.43,-16.7,81,0.61,0.0,1020.16,270.0
2019-12-14 01:50,50.6304483333333,-96.9807716666667,11.9,17.4,328,990.52,-16.9,81,0.60,0.0,1020.26,270.0
2019-12-14 02:00,50.6304516666667,-96.98077,11.8,16.8,327,990.59,-17.1,81,0.60,0.0,1020.35,12.6
2019-12-14 02:10,50.6304516666667,-96.98077,12.3,15.8,332,990.70,-17.2,82,0.59,0.0,1020.48,12.6
2019-12-14 02:20,50.6304533333333,-96.9807416666667,13.1,18.9,336,990.77,-17.2,81,0.58,0.0,1020.54,12.6
2019-12-14 02:30,50.630455,-96.980755,12.8,19.0,336,990.82,-17.3,81,0.57,0.0,1020.60,12.6
2019-12-14 02:40,50.630455,-96.9807583333333,12.7,18.6,335,990.85,-17.4,81,0.57,0.0,1020.66,12.6
2019-12-14 02:50,50.6304516666667,-96.9807633333333,12.0,17.1,338,990.99,-17.5,81,0.57,0.0,1020.81,12.6
2019-12-14 03:00,50.63045,-96.9807533333333,11.7,16.5,338,991.12,-17.6,81,0.56,0.0,1020.95,66.4
2019-12-14 03:10,50.6304516666667,-96.9807616666667,11.7,16.6,337,991.16,-17.6,81,0.56,0.0,1021.00,66.4
2019-12-14 03:20,50.63045,-96.980765,10.8,15.0,335,991.19,-17.7,81,0.56,0.0,1021.04,66.4
2019-12-14 03:30,50.6304416666667,-96.9807583333333,10.6,16.0,337,991.27,-17.8,81,0.56,0.0,1021.14,66.4
2019-12-14 03:40,50.6304416666667,-96.9807583333333,11.3,17.3,336,991.38,-17.8,80,0.56,0.0,1021.27,66.4
2019-12-14 03:50,50.630455,-96.9807566666667,10.6,15.1,330,991.43,-17.9,80,0.56,0.0,1021.34,66.4
2019-12-14 04:00,50.630445,-96.9807583333333,10.3,15.2,329,991.47,-18.0,80,0.55,0.0,1021.39,125.3
2019-12-14 04:10,50.6304466666667,-96.9807566666667,10.8,16.3,326,991.50,-18.2,80,0.55,0.0,1021.43,125.3
2019-12-14 04:20,50.630445,-96.9807533333333,10.5,16.5,328,991.48,-18.3,80,0.55,0.0,1021.42,125.3
2019-12-14 04:30,50.6304466666667,-96.980755,10.1,14.1,327,991.53,-18.5,80,0.55,0.0,1021.49,125.3
2019-12-14 04:40,50.6304366666667,-96.980775,11.7,17.2,331,991.48,-18.6,80,0.55,0.0,1021.45,125.3
2019-12-14 04:50,50.630445,-96.9807683333333,11.5,15.9,331,991.53,-18.6,79,0.55,0.0,1021.51,125.3
2019-12-14 05:00,50.6304466666667,-96.9807633333333,12.1,16.9,331,991.49,-18.7,79,0.56,0.0,1021.47,360.0
2019-12-14 05:10,50.6304483333333,-96.9807616666667,13.5,18.7,333,991.50,-18.7,78,0.55,0.0,1021.49,360.0
2019-12-14 05:20,50.6304466666667,-96.9807633333333,13.7,19.8,336,991.53,-18.8,78,0.55,0.0,1021.53,360.0
2019-12-14 05:30,50.6304483333333,-96.980765,14.0,20.6,335,991.67,-18.8,77,0.54,0.0,1021.68,360.0
2019-12-14 05:40,50.6304483333333,-96.9807666666667,11.1,18.6,333,991.96,-18.9,77,0.53,0.0,1021.99,360.0
2019-12-14 05:50,50.6304566666667,-96.9807733333333,11.9,18.5,332,991.92,-19.1,77,0.53,0.0,1021.96,360.0
2019-12-14 06:00,50.6304533333333,-96.9807683333333,12.5,17.9,328,991.93,-19.2,76,0.52,0.0,1022.00,270.0
2019-12-14 06:10,50.6304566666667,-96.9807733333333,11.8,17.3,325,991.99,-19.6,77,0.51,0.0,1022.08,270.0
2019-12-14 06:20,50.6304566666667,-96.980765,12.2,18.0,320,992.01,-20.0,77,0.51,0.0,1022.14,270.0
2019-12-14 06:30,50.6304533333333,-96.9807633333333,12.8,16.9,320,992.06,-20.4,78,0.52,0.0,1022.22,270.0
2019-12-14 06:40,50.6304533333333,-96.980765,12.4,18.7,324,992.05,-20.7,78,0.51,0.0,1022.23,270.0
2019-12-14 06:50,50.630455,-96.9807683333333,12.5,16.7,326,992.02,-20.8,77,0.51,0.0,1022.21,270.0
2019-12-14 07:00,50.630455,-96.9807716666667,11.2,16.3,328,992.13,-20.7,76,0.50,0.0,1022.33,323.4
2019-12-14 07:10,50.630455,-96.9807733333333,11.8,16.7,324,992.19,-20.8,75,0.49,0.0,1022.39,323.4
2019-12-14 07:20,50.6304566666667,-96.9807716666667,12.2,17.3,322,992.24,-21.0,75,0.49,0.0,1022.46,323.4
2019-12-14 07:30,50.6304566666667,-96.9807716666667,13.0,17.9,320,992.35,-21.2,75,0.49,0.0,1022.59,323.4
2019-12-14 07:40,50.6304566666667,-96.9807716666667,11.4,15.3,315,992.61,-21.5,76,0.49,0.0,1022.89,323.4
2019-12-14 07:50,50.6304566666667,-96.9807733333333,11.9,16.4,318,992.58,-21.9,76,0.49,0.0,1022.89,323.4
2019-12-14 08:00,50.6304566666667,-96.980775,10.8,15.5,322,992.71,-22.0,76,0.48,0.0,1023.05,311.7
2019-12-14 08:10,50.6304566666667,-96.9807733333333,10.2,14.1,320,992.87,-22.1,75,0.48,0.0,1023.25,311.7
2019-12-14 08:20,50.6304566666667,-96.98077,9.2,12.9,319,993.05,-22.2,75,0.48,0.0,1023.46,311.7
2019-12-14 08:30,50.630455,-96.98077,8.7,12.9,315,993.17,-22.3,75,0.48,0.0,1023.61,311.7
2019-12-14 08:40,50.630455,-96.9807716666667,8.9,12.3,316,993.25,-22.6,74,0.47,0.0,1023.71,311.7
2019-12-14 08:50,50.630485,-96.980835,9.1,12.3,315,993.28,-22.7,75,0.46,0.0,1023.75,311.7
2019-12-14 09:00,50.6304666666667,-96.980795,9.5,13.3,314,993.28,-22.8,75,0.45,0.0,1023.77,309.1
2019-12-14 09:10,50.630465,-96.9807866666667,9.2,12.7,313,993.25,-22.9,75,0.45,0.0,1023.75,309.1
2019-12-14 09:20,50.6304616666667,-96.9807816666667,9.7,12.8,316,993.22,-23.1,75,0.45,0.0,1023.74,309.1
2019-12-14 09:30,50.63046,-96.98078,9.8,13.0,318,993.18,-23.2,75,0.45,0.0,1023.72,309.1
2019-12-14 09:40,50.6304683333333,-96.9807783333333,9.8,13.1,316,993.17,-23.4,76,0.45,0.0,1023.74,309.1
2019-12-14 09:50,50.6304566666667,-96.9807716666667,8.9,12.0,319,993.18,-23.6,76,0.45,0.0,1023.78,309.1
2019-12-14 10:00,50.6304533333333,-96.9807783333333,8.6,11.6,316,993.21,-23.7,75,0.45,0.0,1023.82,270.0
2019-12-14 10:10,50.630455,-96.9807833333333,7.9,11.0,314,993.29,-23.9,75,0.44,0.0,1023.92,270.0
2019-12-14 10:20,50.63045,-96.98077,6.7,9.9,316,993.39,-24.0,75,0.42,0.0,1024.04,270.0
2019-12-14 10:30,50.63045,-96.9807733333333,5.9,8.3,315,993.51,-24.1,75,0.42,0.0,1024.19,270.0
2019-12-14 10:40,50.6304533333333,-96.980775,6.5,9.1,317,993.56,-24.2,75,0.42,0.0,1024.26,270.0
2019-12-14 10:50,50.6304483333333,-96.9807716666667,6.7,10.0,322,993.58,-24.2,74,0.42,0.0,1024.29,270.0
2019-12-14 11:00,50.6304483333333,-96.9807733333333,6.6,9.4,313,993.73,-24.3,74,0.41,0.0,1024.45,142.0
2019-12-14 11:10,50.630455,-96.9808433333333,7.3,9.5,311,993.69,-24.4,73,0.41,0.0,1024.42,142.0
2019-12-14 11:20,50.63045,-96.98078,8.1,10.6,316,993.62,-24.5,74,0.41,0.0,1024.36,142.0
2019-12-14 11:30,50.63045,-96.9807766666667,7.3,9.9,312,993.63,-24.5,75,0.40,0.0,1024.39,142.0
2019-12-14 11:40,50.630455,-96.980775,6.9,10.1,311,993.62,-24.7,75,0.40,0.0,1024.40,142.0
2019-12-14 11:50,50.6304583333333,-96.98077,6.0,8.9,319,993.68,-24.8,76,0.40,0.0,1024.48,142.0
2019-12-14 12:00,50.6304566666667,-96.9807683333333,6.1,9.4,321,993.68,-25.0,76,0.40,0.0,1024.50,129.1
2019-12-14 12:10,50.63045,-96.9807633333333,6.1,8.6,323,993.72,-25.1,75,0.40,0.0,1024.55,129.1
2019-12-14 12:20,50.630455,-96.9807666666667,5.5,8.1,314,993.76,-25.3,75,0.39,0.0,1024.62,129.1
2019-12-14 12:30,50.6304533333333,-96.9807683333333,5.6,7.6,307,993.77,-25.4,75,0.39,0.0,1024.64,129.1
2019-12-14 12:40,50.630455,-96.9807716666667,4.9,6.6,304,993.82,-25.6,75,0.38,0.0,1024.70,129.1
2019-12-14 12:50,50.630455,-96.9807683333333,4.5,6.7,291,993.84,-25.8,75,0.38,0.0,1024.74,129.1
2019-12-14 13:00,50.6304383333333,-96.980775,4.5,6.9,298,993.83,-25.8,75,0.38,0.0,1024.75,131.7
2019-12-14 13:10,50.6304483333333,-96.980785,5.6,7.7,308,993.79,-25.9,75,0.37,0.0,1024.70,131.7
2019-12-14 13:20,50.6304616666667,-96.9807683333333,6.5,8.9,316,993.71,-25.9,74,0.37,0.0,1024.63,131.7
2019-12-14 13:30,50.6304616666667,-96.98077,5.1,7.4,315,993.78,-26.0,74,0.37,0.0,1024.72,131.7
2019-12-14 13:40,50.63046,-96.98077,4.8,7.0,312,993.80,-26.0,74,0.37,0.0,1024.75,131.7
2019-12-14 13:50,50.6304583333333,-96.980765,5.2,7.2,309,993.81,-26.1,74,0.37,0.0,1024.77,131.7
2019-12-14 14:00,50.6304566666667,-96.9807666666667,5.0,8.0,298,993.78,-26.3,74,0.37,0.0,1024.77,48.3
2019-12-14 14:10,50.6304566666667,-96.9807683333333,4.9,7.3,306,993.68,-26.5,74,0.37,0.0,1024.68,48.3
2019-12-14 14:20,50.630445,-96.9807966666667,4.9,7.0,300,993.70,-26.6,74,0.37,0.0,1024.72,48.3
2019-12-14 14:30,50.6304566666667,-96.9807783333333,4.6,6.6,296,993.76,-26.7,73,0.36,0.0,1024.80,48.3
2019-12-14 14:40,50.6304566666667,-96.98077,3.9,5.3,293,993.79,-26.8,73,0.36,0.0,1024.84,48.3
2019-12-14 14:50,50.6304533333333,-96.9807616666667,4.6,7.3,303,993.75,-26.7,72,0.36,0.0,1024.81,48.3
2019-12-14 15:00,50.6304516666667,-96.980765,4.4,6.0,292,993.78,-26.7,71,0.36,0.0,1024.83,90.0
2019-12-14 15:10,50.6304516666667,-96.9807666666667,4.7,6.2,282,993.81,-26.7,71,0.36,0.0,1024.88,90.0
2019-12-14 15:20,50.6304516666667,-96.9807666666667,5.4,7.1,279,993.83,-26.9,70,0.36,0.0,1024.91,90.0
2019-12-14 15:30,50.6304516666667,-96.980765,5.0,7.0,280,993.83,-26.9,70,0.35,0.0,1024.91,90.0
2019-12-14 15:40,50.6304516666667,-96.980765,5.0,7.1,282,993.82,-26.7,70,0.35,0.0,1024.89,90.0
2019-12-14 15:50,50.6304516666667,-96.9807633333333,5.0,6.4,292,993.81,-26.4,70,0.34,0.0,1024.87,90.0
2019-12-14 16:00,50.6304516666667,-96.9807633333333,5.2,7.8,302,993.81,-26.1,70,0.34,0.0,1024.86,14.5
2019-12-14 16:10,50.6304516666667,-96.9807633333333,6.0,8.2,299,993.85,-25.8,70,0.33,0.0,1024.90,14.5
2019-12-14 16:20,50.63045,-96.980765,5.7,8.2,287,993.94,-25.5,70,0.33,0.0,1024.98,14.5
2019-12-14 16:30,50.6304516666667,-96.9807666666667,4.2,7.0,286,993.98,-25.3,70,0.33,0.0,1025.01,14.5
2019-12-14 16:40,50.6304566666667,-96.980795,3.8,5.8,274,994.03,-25.0,69,0.33,0.0,1025.04,14.5
2019-12-14 16:50,50.6304566666667,-96.9808,4.9,6.4,273,994.04,-25.0,68,0.33,0.0,1025.04,14.5
2019-12-14 17:00,50.6304516666667,-96.9807733333333,4.2,5.9,271,994.05,-24.9,67,0.32,0.0,1025.05,270.0
2019-12-14 17:10,50.6304516666667,-96.9807633333333,3.9,5.5,274,993.98,-24.5,67,0.32,0.0,1024.97,270.0
2019-12-14 17:20,50.6304516666667,-96.9807666666667,4.2,5.4,275,993.87,-24.3,67,0.32,0.0,1024.84,270.0
2019-12-14 17:30,50.63045,-96.9807666666667,4.4,5.8,274,993.78,-24.0,67,0.32,0.0,1024.72,270.0
2019-12-14 17:40,50.630445,-96.9807516666667,4.4,6.1,273,993.70,-23.7,66,0.32,0.0,1024.60,270.0
2019-12-14 17:50,50.6304566666667,-96.9807716666667,4.8,6.4,277,993.58,-23.5,66,0.32,0.0,1024.44,270.0
2019-12-14 18:00,50.6304583333333,-96.9807683333333,4.9,6.7,276,993.55,-23.3,66,0.31,0.0,1024.38,38.0
2019-12-14 18:10,50.6304233333333,-96.98079,5.1,7.2,265,993.54,-23.1,66,0.31,0.0,1024.33,38.0
2019-12-14 18:20,50.6304566666667,-96.9807816666667,4.8,6.8,268,993.46,-22.9,65,0.30,0.0,1024.23,38.0
2019-12-14 18:30,50.63043,-96.980785,3.8,5.7,293,993.35,-22.6,65,0.30,0.0,1024.07,38.0
2019-12-14 18:40,50.63042,-96.9807983333333,3.5,5.6,264,993.31,-22.4,65,0.30,0.0,1024.02,38.0
2019-12-14 18:50,50.630435,-96.9807733333333,2.9,5.7,294,993.15,-22.0,64,0.30,0.0,1023.83,38.0
2019-12-14 19:00,50.6304366666667,-96.980765,3.6,6.1,329,993.00,-21.8,64,0.30,0.0,1023.63,360.0
2019-12-14 19:10,50.63044,-96.9807666666667,3.5,5.1,323,992.96,-21.8,64,0.30,0.0,1023.58,360.0
2019-12-14 19:20,50.63044,-96.9807666666667,3.5,5.3,280,992.99,-21.7,63,0.31,0.0,1023.59,360.0
2019-12-14 19:30,50.6304433333333,-96.9807666666667,4.2,6.3,284,992.97,-21.6,63,0.31,0.0,1023.54,360.0
2019-12-14 19:40,50.630445,-96.9807666666667,4.0,5.8,283,992.93,-21.6,63,0.31,0.0,1023.49,360.0
2019-12-14 19:50,50.630445,-96.98077,4.3,6.9,266,992.86,-21.5,62,0.31,0.0,1023.40,360.0
2019-12-14 20:00,50.6304433333333,-96.98077,4.9,7.5,251,992.82,-21.4,62,0.32,0.0,1023.34,360.0
2019-12-14 20:10,50.6304433333333,-96.98077,4.6,6.1,252,992.87,-21.4,62,0.32,0.0,1023.37,360.0
2019-12-14 20:20,50.6304433333333,-96.9807583333333,5.8,7.8,271,992.78,-21.3,61,0.33,0.0,1023.26,360.0
2019-12-14 20:30,50.6304366666667,-96.9807766666667,5.0,7.1,264,992.80,-21.2,61,0.33,0.0,1023.26,360.0
2019-12-14 20:40,50.630435,-96.9807733333333,4.9,6.5,255,992.72,-21.1,62,0.33,0.0,1023.16,360.0
2019-12-14 20:50,50.63044,-96.980775,4.9,6.4,245,992.70,-21.1,62,0.34,0.0,1023.11,360.0
2019-12-14 21:00,50.6304416666667,-96.9807733333333,6.0,8.1,243,992.73,-21.2,62,0.34,0.0,1023.16,360.0
2019-12-14 21:10,50.6304433333333,-96.9807733333333,4.2,7.0,265,992.67,-21.1,62,0.34,0.0,1023.08,360.0
2019-12-14 21:20,50.630445,-96.980775,3.5,5.5,278,992.64,-20.9,62,0.34,0.0,1023.03,360.0
2019-12-14 21:30,50.630445,-96.980775,3.8,5.5,288,992.50,-21.0,63,0.35,0.0,1022.89,360.0
2019-12-14 21:40,50.630445,-96.980775,3.8,5.0,270,992.48,-21.1,63,0.35,0.0,1022.87,360.0
2019-12-14 21:50,50.630445,-96.9807766666667,3.3,5.0,270,992.45,-21.2,63,0.36,0.0,1022.84,360.0
2019-12-14 22:00,50.630445,-96.9807766666667,2.7,4.0,238,992.42,-21.2,63,0.36,0.0,1022.82,311.7
2019-12-14 22:10,50.630445,-96.9807766666667,2.5,3.8,238,992.37,-21.4,64,0.37,0.0,1022.76,311.7
2019-12-14 22:20,50.630445,-96.980775,1.8,3.6,264,992.20,-21.5,65,0.37,0.0,1022.59,311.7
2019-12-14 22:30,50.630445,-96.9807766666667,1.6,2.1,224,992.12,-21.9,66,0.37,0.0,1022.53,311.7
2019-12-14 22:40,50.630445,-96.9807766666667,1.3,2.0,207,992.03,-22.1,67,0.37,0.0,1022.45,311.7
2019-12-14 22:50,50.630445,-96.9807766666667,2.9,3.9,194,991.96,-22.3,70,0.38,0.0,1022.40,311.7
2019-12-14 23:00,50.630445,-96.980775,2.7,3.5,218,991.97,-22.5,69,0.40,0.0,1022.41,270.0
2019-12-14 23:10,50.630445,-96.980775,2.6,3.1,220,991.94,-22.6,69,0.40,0.0,1022.37,270.0
2019-12-14 23:20,50.6304416666667,-96.98077,3.1,3.5,196,991.85,-23.0,71,0.40,0.0,1022.31,270.0
2019-12-14 23:30,50.630445,-96.9807716666667,2.9,3.4,196,991.81,-23.3,72,0.40,0.0,1022.29,270.0
2019-12-14 23:40,50.6304483333333,-96.9807666666667,3.1,3.6,198,991.84,-23.5,73,0.40,0.0,1022.34,270.0
2019-12-14 23:50,50.6304466666667,-96.9807616666667,3.2,3.8,209,991.79,-23.5,73,0.41,0.0,1022.30,270.0
